Overview Statistics Trail Chart Weather Telemetry Raw packets
 

This is the latest recevied weather packets stored in our database for station/object W0WFX-2. If no packets are shown the sender has not sent any weather packets the latest 10 day(s).

<< 61 62 63 64 65 66 67 >>
Time Temp. Humidity Pressure Rain* Wind** Luminosity Snow
1788221994 32.78° C 45% 1013.3 hPa 0 mm - 22 W/m² -
1788221689 33.33° C 43% 1013.3 hPa 0 mm - 24 W/m² -
1788221385 33.33° C 43% 1013.3 hPa 0 mm - 26 W/m² -
1788221079 33.89° C 43% 1013.3 hPa 0 mm - 28 W/m² -
1788220779 33.89° C 43% 1013.3 hPa 0 mm - 30 W/m² -
1788220474 34.44° C 42% 1013.1 hPa 0 mm - 30 W/m² -
1788220170 34.44° C 40% 1013.3 hPa 0 mm - 30 W/m² -
1788219869 35° C 39% 1013.2 hPa 0 mm - 33 W/m² -
1788219565 35° C 38% 1013.2 hPa 0 mm - 33 W/m² -
1788219260 35.56° C 37% 1013.2 hPa 0 mm - 34 W/m² -
1788218956 35.56° C 36% 1013.3 hPa 0 mm - 33 W/m² -
1788218651 36.11° C 36% 1013.5 hPa 0 mm - 36 W/m² -
1788218347 36.11° C 35% 1013.2 hPa 0 mm - 46 W/m² -
1788218043 36.67° C 35% 1013.3 hPa 0 mm - 54 W/m² -
1788217739 36.67° C 35% 1013.5 hPa 0 mm - 55 W/m² -
1788217439 36.67° C 34% 1013.3 hPa 0 mm - 55 W/m² -
1788217134 36.67° C 33% 1013.3 hPa 0 mm - 65 W/m² -
1788216829 37.22° C 33% 1013 hPa 0 mm - 59 W/m² -
1788216524 37.22° C 33% 1013 hPa 0 mm - 59 W/m² -
1788216219 37.22° C 32% 1013 hPa 0 mm - 60 W/m² -
1788215913 37.78° C 32% 1013.1 hPa 0 mm - 63 W/m² -
1788215610 37.78° C 31% 1013.1 hPa 0 mm - 65 W/m² -
1788215306 37.78° C 31% 1013.3 hPa 0 mm - 153 W/m² -
1788215002 38.33° C 30% 1013.2 hPa 0 mm - 292 W/m² -
1788214702 38.33° C 30% 1013.2 hPa 0 mm - 315 W/m² -

* Rain latest hour (hover to see other rain measurements)
** Current wind speed in m/s (hover to see current wind gust speed)